FDX9008 OMDW-FAOR

Flight info

Callsign FDX9008
Flight time N/A
Altitude 33000
Route ANVIX L223 TARDI N629 GIDAN P570 KITAL L516 UNRIV/N0498F340 G424 VUTAS UG424 ANVET UT940 ORSER/N0489F360 UT940 AVIGO UG424 DV UM310 VBR UM307 EPSEK/N0492F280 UG465 WIV
Aircraft B77L/H-SDE1E2E3FGHIJ2J3J4J5M1RWXY/LB1D1

Departure

Time 2026-04-24 09:03
Airport Al Maktoum International Airport (OMDW)

Arrival

Time N/A
Airport O.R. Tambo International Airport (FAOR)
Time Latitude Longitude Altitude Speed Heading
2026-04-24 08:26 24.89625 55.14565 166 ft 0 kts 301°
2026-04-24 08:41 24.89613 55.14586 164 ft 4 kts 306°
2026-04-24 08:41 24.89596 55.14610 164 ft 4 kts 312°
2026-04-24 08:42 24.89577 55.14630 164 ft 4 kts 323°
2026-04-24 08:42 24.89555 55.14644 164 ft 4 kts 351°
2026-04-24 08:42 24.89539 55.14644 164 ft 0 kts 26°
2026-04-24 08:51 24.89540 55.14644 164 ft 1 kts 26°
2026-04-24 08:51 24.89552 55.14651 164 ft 3 kts 26°
2026-04-24 08:51 24.89575 55.14663 164 ft 4 kts 26°
2026-04-24 08:52 24.89608 55.14682 164 ft 6 kts 33°
2026-04-24 08:52 24.89647 55.14712 164 ft 8 kts 34°
2026-04-24 08:52 24.89696 55.14745 163 ft 9 kts 31°
2026-04-24 08:52 24.89752 55.14782 163 ft 10 kts 31°
2026-04-24 08:53 24.89816 55.14825 163 ft 11 kts 31°
2026-04-24 08:53 24.89887 55.14873 163 ft 12 kts 32°
2026-04-24 08:53 24.89961 55.14922 163 ft 12 kts 31°
2026-04-24 08:53 24.90030 55.14978 163 ft 12 kts 60°
2026-04-24 08:54 24.90010 55.15069 163 ft 13 kts 120°
2026-04-24 08:54 24.89961 55.15161 163 ft 15 kts 120°
2026-04-24 08:54 24.89905 55.15259 163 ft 16 kts 124°
2026-04-24 08:54 24.89846 55.15367 163 ft 17 kts 120°
2026-04-24 08:55 24.89786 55.15474 162 ft 17 kts 121°
2026-04-24 08:55 24.89725 55.15582 162 ft 17 kts 121°
2026-04-24 08:55 24.89666 55.15690 162 ft 17 kts 121°
2026-04-24 08:55 24.89606 55.15798 165 ft 16 kts 121°
2026-04-24 08:56 24.89547 55.15907 163 ft 17 kts 121°
2026-04-24 08:56 24.89487 55.16015 163 ft 16 kts 122°
2026-04-24 08:56 24.89427 55.16121 163 ft 16 kts 121°
2026-04-24 08:56 24.89368 55.16229 163 ft 16 kts 121°
2026-04-24 08:57 24.89308 55.16337 163 ft 16 kts 121°
2026-04-24 08:57 24.89248 55.16445 162 ft 16 kts 121°
2026-04-24 08:57 24.89188 55.16554 162 ft 16 kts 121°
2026-04-24 08:57 24.89128 55.16661 162 ft 16 kts 122°
2026-04-24 08:58 24.89069 55.16769 162 ft 16 kts 122°
2026-04-24 08:58 24.89009 55.16876 162 ft 16 kts 121°
2026-04-24 08:58 24.88949 55.16985 162 ft 16 kts 121°
2026-04-24 08:58 24.88890 55.17091 163 ft 16 kts 122°
2026-04-24 08:59 24.88830 55.17200 163 ft 16 kts 121°
2026-04-24 08:59 24.88770 55.17308 163 ft 16 kts 121°
2026-04-24 08:59 24.88710 55.17416 163 ft 16 kts 121°
2026-04-24 08:59 24.88650 55.17523 162 ft 16 kts 121°
2026-04-24 09:00 24.88592 55.17632 162 ft 16 kts 119°
2026-04-24 09:00 24.88531 55.17739 162 ft 16 kts 122°
2026-04-24 09:00 24.88494 55.17806 162 ft 10 kts 121°
2026-04-24 09:00 24.88471 55.17873 162 ft 10 kts 91°
2026-04-24 09:01 24.88508 55.17928 162 ft 10 kts 28°
2026-04-24 09:01 24.88566 55.17965 162 ft 10 kts 31°
2026-04-24 09:01 24.88627 55.17967 162 ft 10 kts 324°
2026-04-24 09:01 24.88666 55.17906 162 ft 10 kts 300°
2026-04-24 09:02 24.88788 55.17686 162 ft 64 kts 301°
2026-04-24 09:02 24.89122 55.17081 164 ft 119 kts 301°
2026-04-24 09:02 24.89637 55.16155 162 ft 163 kts 301°
2026-04-24 09:02 24.90279 55.14980 273 ft 184 kts 302°
2026-04-24 09:03 24.90916 55.13809 716 ft 174 kts 300°
2026-04-24 09:03 24.91530 55.12640 924 ft 180 kts 303°
2026-04-24 09:03 24.92165 55.11477 1386 ft 176 kts 307°
2026-04-24 09:03 24.92826 55.10325 1790 ft 182 kts 307°
2026-04-24 09:04 24.93529 55.09086 1931 ft 202 kts 304°
2026-04-24 09:04 24.94297 55.07719 2244 ft 214 kts 304°
2026-04-24 09:04 24.95100 55.06274 2558 ft 224 kts 303°
2026-04-24 09:04 24.95600 55.04615 2812 ft 238 kts 270°
2026-04-24 09:05 24.95134 55.02870 3292 ft 243 kts 234°
2026-04-24 09:05 24.93880 55.01634 3748 ft 242 kts 210°
2026-04-24 09:05 24.92412 55.00682 4224 ft 247 kts 210°
2026-04-24 09:05 24.90851 54.99971 4752 ft 242 kts 183°
2026-04-24 09:06 24.89242 55.00294 5352 ft 235 kts 150°
2026-04-24 09:06 24.88016 55.01431 5869 ft 237 kts 129°
2026-04-24 09:06 24.87054 55.02980 6256 ft 245 kts 123°
2026-04-24 09:06 24.86260 55.04636 6644 ft 251 kts 106°
2026-04-24 09:07 24.86220 55.06588 6851 ft 266 kts 78°
2026-04-24 09:07 24.86682 55.08625 7055 ft 281 kts 79°
2026-04-24 09:07 24.87436 55.12210 7785 ft 294 kts 78°
2026-04-24 09:08 24.88032 55.15152 8508 ft 299 kts 79°
2026-04-24 09:08 24.88337 55.16672 8899 ft 301 kts 79°
2026-04-24 09:08 24.88832 55.18899 9426 ft 304 kts 72°
2026-04-24 09:08 24.89624 55.21086 9932 ft 310 kts 67°
2026-04-24 09:09 24.90503 55.23288 10362 ft 319 kts 68°
2026-04-24 09:09 24.91400 55.25607 10503 ft 339 kts 68°
2026-04-24 09:09 24.92339 55.28085 10654 ft 360 kts 68°
2026-04-24 09:09 24.93323 55.30726 10798 ft 381 kts 69°
2026-04-24 09:10 24.94340 55.33472 11255 ft 391 kts 69°
2026-04-24 09:10 24.95366 55.36248 11725 ft 401 kts 68°
2026-04-24 09:10 24.96425 55.39115 12414 ft 405 kts 69°
2026-04-24 09:10 24.97483 55.42008 13155 ft 409 kts 69°
2026-04-24 09:11 24.98493 55.44969 13818 ft 413 kts 70°
2026-04-24 09:11 24.99492 55.47952 14504 ft 414 kts 70°
2026-04-24 09:11 25.00501 55.50948 15138 ft 417 kts 70°
2026-04-24 09:11 25.01136 55.54022 15543 ft 419 kts 90°
2026-04-24 09:12 25.00771 55.57210 16095 ft 422 kts 108°
2026-04-24 09:12 24.99570 55.60167 16575 ft 424 kts 122°
2026-04-24 09:12 24.97983 55.62946 16992 ft 432 kts 123°
2026-04-24 09:12 24.96384 55.65785 17559 ft 436 kts 123°
2026-04-24 09:13 24.94812 55.68658 18164 ft 439 kts 122°
2026-04-24 09:13 24.93219 55.71511 18654 ft 442 kts 125°
2026-04-24 09:13 24.91423 55.74274 19156 ft 445 kts 128°
2026-04-24 09:13 24.89534 55.76996 19693 ft 447 kts 129°
2026-04-24 09:14 24.87643 55.79734 20207 ft 450 kts 128°
2026-04-24 09:14 24.85769 55.82520 20755 ft 452 kts 128°
2026-04-24 09:14 24.83903 55.85334 21247 ft 456 kts 127°
2026-04-24 09:14 24.82036 55.88126 21731 ft 459 kts 128°
2026-04-24 09:15 24.80117 55.90967 22188 ft 463 kts 128°
2026-04-24 09:15 24.78176 55.93817 22678 ft 466 kts 130°
2026-04-24 09:15 24.75993 55.96445 23106 ft 466 kts 139°
2026-04-24 09:15 24.73543 55.98823 23552 ft 469 kts 141°
2026-04-24 09:16 24.71076 56.01185 23929 ft 472 kts 140°
2026-04-24 09:16 24.68668 56.03600 24313 ft 475 kts 139°
2026-04-24 09:16 24.66240 56.06096 24673 ft 479 kts 138°
2026-04-24 09:16 24.63788 56.08624 25021 ft 483 kts 138°
2026-04-24 09:17 24.61318 56.11159 25392 ft 486 kts 139°
2026-04-24 09:17 24.58840 56.13698 25787 ft 489 kts 138°
2026-04-24 09:17 24.56426 56.16287 26177 ft 492 kts 134°
2026-04-24 09:17 24.54162 56.19135 26540 ft 495 kts 131°
2026-04-24 09:18 24.51925 56.22030 26889 ft 499 kts 131°
2026-04-24 09:18 24.49666 56.24952 27258 ft 502 kts 131°
2026-04-24 09:18 24.47390 56.27879 27613 ft 505 kts 131°
2026-04-24 09:18 24.45097 56.30812 27959 ft 508 kts 131°
2026-04-24 09:19 24.42785 56.33753 28301 ft 510 kts 131°
2026-04-24 09:19 24.40482 56.36677 28644 ft 512 kts 131°
2026-04-24 09:19 24.38141 56.39647 28960 ft 515 kts 131°
2026-04-24 09:19 24.35785 56.42636 29258 ft 518 kts 131°
2026-04-24 09:20 24.33416 56.45641 29565 ft 521 kts 131°
2026-04-24 09:20 24.30276 56.49632 30024 ft 522 kts 130°
2026-04-24 09:20 24.28742 56.51731 30290 ft 521 kts 127°
2026-04-24 09:20 24.26605 56.54944 30669 ft 521 kts 126°
2026-04-24 09:21 24.24491 56.58170 30996 ft 521 kts 126°
2026-04-24 09:21 24.22377 56.61399 31313 ft 522 kts 126°
2026-04-24 09:21 24.20254 56.64626 31651 ft 522 kts 127°
2026-04-24 09:21 24.18136 56.67826 31807 ft 526 kts 127°
2026-04-24 09:22 24.13823 56.74311 31864 ft 525 kts 127°
2026-04-24 09:22 24.09536 56.80745 31867 ft 520 kts 127°
2026-04-24 09:23 24.05266 56.87150 31866 ft 519 kts 127°
2026-04-24 09:23 24.01014 56.93501 31873 ft 519 kts 127°
2026-04-24 09:24 23.96720 56.99879 31868 ft 520 kts 127°
2026-04-24 09:24 23.92456 57.06213 31857 ft 521 kts 127°
2026-04-24 09:25 23.88141 57.12618 31881 ft 522 kts 127°
2026-04-24 09:25 23.83836 57.19019 31850 ft 522 kts 127°
2026-04-24 09:26 23.79559 57.25379 31864 ft 523 kts 127°
2026-04-24 09:26 23.75245 57.31783 31854 ft 523 kts 127°
2026-04-24 09:27 23.70917 57.38171 31867 ft 523 kts 128°
2026-04-24 09:27 23.66414 57.44394 31857 ft 522 kts 129°
2026-04-24 09:28 23.61880 57.50549 31853 ft 522 kts 129°
2026-04-24 09:28 23.57361 57.56750 31879 ft 521 kts 129°
2026-04-24 09:29 23.52885 57.62919 31864 ft 521 kts 129°
2026-04-24 09:29 23.48384 57.69107 31892 ft 520 kts 129°
2026-04-24 09:30 23.43851 57.75297 31880 ft 520 kts 129°
2026-04-24 09:30 23.39353 57.81424 31898 ft 520 kts 129°
2026-04-24 09:31 23.34825 57.87591 31888 ft 520 kts 129°
2026-04-24 09:31 23.30334 57.93708 31890 ft 520 kts 129°
2026-04-24 09:32 23.25801 57.99865 31899 ft 519 kts 129°
2026-04-24 09:32 23.21559 58.06210 31914 ft 518 kts 124°
2026-04-24 09:33 23.17538 58.12669 31900 ft 518 kts 124°
2026-04-24 09:33 23.13466 58.19160 31897 ft 518 kts 124°
2026-04-24 09:34 23.09380 58.25624 31893 ft 518 kts 124°
2026-04-24 09:34 23.05298 58.32072 31892 ft 518 kts 125°
2026-04-24 09:35 23.00518 58.37900 31895 ft 518 kts 139°
2026-04-24 09:35 22.94740 58.42445 31898 ft 516 kts 150°
2026-04-24 09:36 22.88549 58.46429 31888 ft 517 kts 150°
2026-04-24 09:36 22.82372 58.50461 31889 ft 518 kts 149°
2026-04-24 09:37 22.76209 58.54541 31879 ft 518 kts 149°
2026-04-24 09:37 22.70047 58.58621 31881 ft 518 kts 149°
2026-04-24 09:38 22.63917 58.62667 31883 ft 518 kts 149°
2026-04-24 09:38 22.57732 58.66747 31880 ft 518 kts 149°
2026-04-24 09:39 22.51599 58.70790 31883 ft 518 kts 149°
2026-04-24 09:39 22.45433 58.74852 31883 ft 518 kts 149°
2026-04-24 09:40 22.39265 58.78911 31879 ft 518 kts 149°
2026-04-24 09:40 22.33106 58.82960 31876 ft 518 kts 149°
2026-04-24 09:41 22.26968 58.86992 31877 ft 518 kts 149°
2026-04-24 09:41 22.20805 58.91033 31868 ft 518 kts 149°
2026-04-24 09:42 22.14637 58.95067 31867 ft 517 kts 149°
2026-04-24 09:42 22.08512 58.99070 31869 ft 517 kts 149°
2026-04-24 09:43 22.02342 59.03099 31867 ft 517 kts 149°
2026-04-24 09:43 21.96163 59.07131 31859 ft 517 kts 149°
2026-04-24 09:44 21.90004 59.11146 31860 ft 517 kts 149°
2026-04-24 09:44 21.83868 59.15141 31851 ft 518 kts 149°
2026-04-24 09:45 21.77695 59.19157 31849 ft 517 kts 149°
2026-04-24 09:45 21.71524 59.23167 31846 ft 517 kts 149°
2026-04-24 09:46 21.68479 59.25145 31843 ft 517 kts 149°